Time,TemperatureF,DewpointF,PressureIn,WindDirection,WindDirectionDegrees,WindSpeedMPH,WindSpeedGustMPH,Humidity,HourlyPrecipIn,Conditions,Clouds,dailyrainin,SoftwareType,DateUTC
2013-03-15 00:00:00,34.4,23.8,30.15,WNW,283,0.0,0.0,65,0.00,CLR,,0.00,WeatherDisplay:10.37,2013-03-15 04:00:00,
2013-03-15 00:05:00,34.0,24.2,30.15,WNW,284,0.0,0.0,67,0.00,CLR,,0.00,WeatherDisplay:10.37,2013-03-15 04:05:00,
2013-03-15 00:10:00,33.8,24.7,30.15,WNW,283,0.0,0.0,69,0.00,CLR,,0.00,WeatherDisplay:10.37,2013-03-15 04:10:00,
2013-03-15 00:15:00,33.6,24.5,30.16,WNW,283,0.0,0.0,69,0.00,CLR,,0.00,WeatherDisplay:10.37,2013-03-15 04:15:00,
2013-03-15 00:20:00,33.3,24.6,30.15,WNW,283,0.0,0.0,70,0.00,CLR,,0.00,WeatherDisplay:10.37,2013-03-15 04:20:00,
2013-03-15 00:25:00,33.0,25.0,30.16,WNW,284,0.0,0.0,72,0.00,CLR,,0.00,WeatherDisplay:10.37,2013-03-15 04:25:00,
2013-03-15 00:30:00,32.8,25.7,30.16,WNW,283,0.0,0.0,75,0.00,CLR,,0.00,WeatherDisplay:10.37,2013-03-15 04:30:00,
2013-03-15 00:35:00,32.6,25.9,30.16,WNW,283,0.0,0.0,76,0.00,CLR,,0.00,WeatherDisplay:10.37,2013-03-15 04:35:00,
2013-03-15 00:40:00,32.6,26.2,30.16,WNW,283,0.0,0.0,77,0.00,CLR,,0.00,WeatherDisplay:10.37,2013-03-15 04:40:00,
2013-03-15 00:45:00,32.4,26.0,30.16,WNW,284,0.0,0.0,77,0.00,CLR,,0.00,WeatherDisplay:10.37,2013-03-15 04:45:00,
2013-03-15 00:50:00,32.3,26.2,30.16,WNW,283,0.0,0.0,78,0.00,CLR,,0.00,WeatherDisplay:10.37,2013-03-15 04:50:00,
2013-03-15 00:55:00,32.3,26.5,30.16,WNW,283,0.0,0.0,79,0.00,CLR,,0.00,WeatherDisplay:10.37,2013-03-15 04:55:00,
2013-03-15 01:00:00,32.4,26.0,30.16,WNW,284,0.0,0.0,77,0.00,CLR,,0.00,WeatherDisplay:10.37,2013-03-15 05:00:00,
2013-03-15 01:05:00,32.5,26.1,30.16,WNW,285,0.0,0.0,77,0.00,CLR,,0.00,WeatherDisplay:10.37,2013-03-15 05:05:00,
2013-03-15 01:10:00,32.8,26.1,30.16,WNW,285,0.0,0.0,76,0.00,CLR,,0.00,WeatherDisplay:10.37,2013-03-15 05:10:00,
2013-03-15 01:15:00,32.9,26.2,30.16,WNW,285,0.0,0.0,76,0.00,CLR,,0.00,WeatherDisplay:10.37,2013-03-15 05:15:00,
2013-03-15 01:20:00,32.9,25.8,30.16,WNW,285,0.0,0.0,75,0.00,CLR,,0.00,WeatherDisplay:10.37,2013-03-15 05:20:00,
2013-03-15 01:25:00,32.9,25.2,30.16,WNW,285,0.0,0.0,73,0.00,CLR,,0.00,WeatherDisplay:10.37,2013-03-15 05:25:00,
2013-03-15 01:30:00,33.9,23.4,30.16,WNW,286,0.0,0.0,65,0.00,CLR,,0.00,WeatherDisplay:10.37,2013-03-15 05:30:00,
2013-03-15 01:35:00,34.8,22.3,30.16,SW,229,0.0,0.0,60,0.00,CLR,,0.00,WeatherDisplay:10.37,2013-03-15 05:35:00,
2013-03-15 01:40:00,34.9,22.0,30.17,SW,229,0.0,0.0,59,0.00,CLR,,0.00,WeatherDisplay:10.37,2013-03-15 05:40:00,
2013-03-15 01:45:00,35.1,22.2,30.17,SW,230,0.0,0.0,59,0.00,CLR,,0.00,WeatherDisplay:10.37,2013-03-15 05:45:00,
2013-03-15 01:50:00,35.6,21.4,30.17,SW,232,0.0,0.0,56,0.00,CLR,,0.00,WeatherDisplay:10.37,2013-03-15 05:50:00,
2013-03-15 01:55:00,35.7,21.5,30.16,SW,233,0.0,0.0,56,0.00,CLR,,0.00,WeatherDisplay:10.37,2013-03-15 05:55:00,
2013-03-15 02:00:00,35.5,20.9,30.16,SW,225,0.0,0.0,55,0.00,CLR,,0.00,WeatherDisplay:10.37,2013-03-15 06:00:00,
2013-03-15 02:05:00,35.7,21.1,30.16,SW,226,0.0,0.0,55,0.00,CLR,,0.00,WeatherDisplay:10.37,2013-03-15 06:05:00,
2013-03-15 02:10:00,36.0,20.9,30.17,SW,226,0.0,0.0,54,0.00,CLR,,0.00,WeatherDisplay:10.37,2013-03-15 06:10:00,
2013-03-15 02:15:00,36.0,20.9,30.16,SW,226,0.0,0.0,54,0.00,CLR,,0.00,WeatherDisplay:10.37,2013-03-15 06:15:00,
2013-03-15 02:20:00,35.6,20.6,30.17,SW,226,0.0,0.0,54,0.00,CLR,,0.00,WeatherDisplay:10.37,2013-03-15 06:20:00,
2013-03-15 02:25:00,35.3,20.7,30.17,WSW,239,0.0,0.0,55,0.00,CLR,,0.00,WeatherDisplay:10.37,2013-03-15 06:25:00,
2013-03-15 02:30:00,35.4,20.8,30.16,WSW,238,0.0,0.0,55,0.00,CLR,,0.00,WeatherDisplay:10.37,2013-03-15 06:30:00,
2013-03-15 02:35:00,35.2,20.6,30.17,WSW,238,0.0,0.0,55,0.00,CLR,,0.00,WeatherDisplay:10.37,2013-03-15 06:35:00,
2013-03-15 02:40:00,34.7,20.6,30.17,WSW,238,0.0,0.0,56,0.00,CLR,,0.00,WeatherDisplay:10.37,2013-03-15 06:40:00,
2013-03-15 02:45:00,34.3,22.2,30.16,WSW,238,0.0,0.0,61,0.00,CLR,,0.00,WeatherDisplay:10.37,2013-03-15 06:45:00,
2013-03-15 02:50:00,34.4,23.1,30.16,SW,223,0.0,0.0,63,0.00,CLR,,0.00,WeatherDisplay:10.37,2013-03-15 06:50:00,
2013-03-15 02:55:00,34.1,22.8,30.16,SW,225,0.0,0.0,63,0.00,CLR,,0.00,WeatherDisplay:10.37,2013-03-15 06:55:00,
2013-03-15 03:00:00,33.6,22.7,30.16,SW,225,0.0,0.0,64,0.00,CLR,,0.00,WeatherDisplay:10.37,2013-03-15 07:00:00,
2013-03-15 03:05:00,33.5,21.9,30.16,SW,225,0.0,0.0,62,0.00,CLR,,0.00,WeatherDisplay:10.37,2013-03-15 07:05:00,
2013-03-15 03:10:00,33.4,21.4,30.16,SW,226,0.0,0.0,61,0.00,CLR,,0.00,WeatherDisplay:10.37,2013-03-15 07:10:00,
2013-03-15 03:15:00,33.2,21.6,30.16,SW,226,0.0,0.0,62,0.00,CLR,,0.00,WeatherDisplay:10.37,2013-03-15 07:15:00,
2013-03-15 03:20:00,32.8,21.2,30.16,SW,226,0.0,0.0,62,0.00,CLR,,0.00,WeatherDisplay:10.37,2013-03-15 07:20:00,
2013-03-15 03:25:00,32.6,21.4,30.16,SW,227,0.0,0.0,63,0.00,CLR,,0.00,WeatherDisplay:10.37,2013-03-15 07:25:00,
2013-03-15 03:30:00,32.5,21.7,30.16,SW,226,0.0,0.0,64,0.00,CLR,,0.00,WeatherDisplay:10.37,2013-03-15 07:30:00,
2013-03-15 03:36:00,32.3,21.8,30.16,SW,226,0.0,0.0,65,0.00,CLR,,0.00,WeatherDisplay:10.37,2013-03-15 07:36:00,
2013-03-15 03:41:00,31.8,21.4,30.15,SW,226,0.0,0.0,65,0.00,CLR,,0.00,WeatherDisplay:10.37,2013-03-15 07:41:00,
2013-03-15 03:46:00,31.2,21.5,30.15,SW,227,0.0,0.0,67,0.00,CLR,,0.00,WeatherDisplay:10.37,2013-03-15 07:46:00,
2013-03-15 03:51:00,31.0,21.0,30.15,SW,226,0.0,0.0,66,0.00,CLR,,0.00,WeatherDisplay:10.37,2013-03-15 07:51:00,
2013-03-15 03:56:00,31.1,21.4,30.15,SW,226,0.0,0.0,67,0.00,CLR,,0.00,WeatherDisplay:10.37,2013-03-15 07:56:00,
2013-03-15 04:01:00,31.0,21.0,30.14,SW,226,0.0,0.0,66,0.00,CLR,,0.00,WeatherDisplay:10.37,2013-03-15 08:01:00,
2013-03-15 04:06:00,30.5,21.2,30.14,SW,226,0.0,0.0,68,0.00,CLR,,0.00,WeatherDisplay:10.37,2013-03-15 08:06:00,
2013-03-15 04:11:00,30.3,21.3,30.14,SW,226,0.0,0.0,69,0.00,CLR,,0.00,WeatherDisplay:10.37,2013-03-15 08:11:00,
2013-03-15 04:16:00,30.4,21.8,30.14,SW,226,0.0,0.0,70,0.00,CLR,,0.00,WeatherDisplay:10.37,2013-03-15 08:16:00,
2013-03-15 04:21:00,30.2,21.2,30.14,SW,227,0.0,0.0,69,0.00,CLR,,0.00,WeatherDisplay:10.37,2013-03-15 08:21:00,
2013-03-15 04:26:00,30.1,21.2,30.13,SW,227,0.0,0.0,69,0.00,CLR,,0.00,WeatherDisplay:10.37,2013-03-15 08:26:00,
2013-03-15 04:31:00,29.9,21.3,30.14,SW,226,0.0,0.0,70,0.00,CLR,,0.00,WeatherDisplay:10.37,2013-03-15 08:31:00,
2013-03-15 04:37:00,29.7,21.8,30.14,SW,226,0.0,0.0,72,0.00,CLR,,0.00,WeatherDisplay:10.37,2013-03-15 08:37:00,
2013-03-15 04:42:00,29.6,21.7,30.14,SW,226,0.0,0.0,72,0.00,CLR,,0.00,WeatherDisplay:10.37,2013-03-15 08:42:00,
2013-03-15 04:47:00,29.4,21.8,30.14,SW,226,0.0,0.0,73,0.00,CLR,,0.00,WeatherDisplay:10.37,2013-03-15 08:47:00,
2013-03-15 04:52:00,29.2,21.6,30.14,SW,226,0.0,0.0,73,0.00,CLR,,0.00,WeatherDisplay:10.37,2013-03-15 08:52:00,
2013-03-15 04:57:00,29.1,22.2,30.14,SW,226,0.0,0.0,75,0.00,CLR,,0.00,WeatherDisplay:10.37,2013-03-15 08:57:00,
2013-03-15 05:02:00,29.1,22.5,30.14,SW,226,0.0,0.0,76,0.00,CLR,,0.00,WeatherDisplay:10.37,2013-03-15 09:02:00,
2013-03-15 05:07:00,29.1,22.2,30.15,SW,226,0.0,0.0,75,0.00,CLR,,0.00,WeatherDisplay:10.37,2013-03-15 09:07:00,
2013-03-15 05:12:00,29.2,22.3,30.15,SW,226,0.0,0.0,75,0.00,CLR,,0.00,WeatherDisplay:10.37,2013-03-15 09:12:00,
2013-03-15 05:17:00,29.1,21.8,30.15,SW,226,0.0,0.0,74,0.00,CLR,,0.00,WeatherDisplay:10.37,2013-03-15 09:17:00,
2013-03-15 05:22:00,29.0,22.1,30.15,SW,226,0.0,0.0,75,0.00,CLR,,0.00,WeatherDisplay:10.37,2013-03-15 09:22:00,
2013-03-15 05:27:00,28.9,22.0,30.15,SW,227,0.0,0.0,75,0.00,CLR,,0.00,WeatherDisplay:10.37,2013-03-15 09:27:00,
2013-03-15 05:32:00,28.8,21.9,30.15,SW,226,0.0,0.0,75,0.00,CLR,,0.00,WeatherDisplay:10.37,2013-03-15 09:32:00,
2013-03-15 05:37:00,28.5,21.6,30.15,SW,226,0.0,0.0,75,0.00,CLR,,0.00,WeatherDisplay:10.37,2013-03-15 09:37:00,
2013-03-15 05:42:00,28.1,21.2,30.15,SW,227,0.0,0.0,75,0.00,CLR,,0.00,WeatherDisplay:10.37,2013-03-15 09:42:00,
2013-03-15 05:47:00,27.8,21.5,30.15,SW,226,0.0,0.0,77,0.00,CLR,,0.00,WeatherDisplay:10.37,2013-03-15 09:47:00,
2013-03-15 05:52:00,27.7,22.3,30.15,SW,226,0.0,0.0,80,0.00,CLR,,0.00,WeatherDisplay:10.37,2013-03-15 09:52:00,
2013-03-15 05:57:00,27.9,21.9,30.16,SW,226,0.0,0.0,78,0.00,CLR,,0.00,WeatherDisplay:10.37,2013-03-15 09:57:00,
2013-03-15 06:02:00,28.1,22.1,30.16,SW,226,0.0,0.0,78,0.00,CLR,,0.00,WeatherDisplay:10.37,2013-03-15 10:02:00,
2013-03-15 06:07:00,28.1,21.5,30.16,SW,226,0.0,0.0,76,0.00,CLR,,0.00,WeatherDisplay:10.37,2013-03-15 10:07:00,
2013-03-15 06:12:00,28.0,22.0,30.16,SW,226,0.0,0.0,78,0.00,CLR,,0.00,WeatherDisplay:10.37,2013-03-15 10:12:00,
2013-03-15 06:17:00,28.0,22.0,30.16,SW,226,0.0,0.0,78,0.00,CLR,,0.00,WeatherDisplay:10.37,2013-03-15 10:17:00,
2013-03-15 06:22:00,27.9,21.6,30.16,SW,226,0.0,0.0,77,0.00,CLR,,0.00,WeatherDisplay:10.37,2013-03-15 10:22:00,
2013-03-15 06:27:00,27.8,22.1,30.16,SW,226,0.0,0.0,79,0.00,CLR,,0.00,WeatherDisplay:10.37,2013-03-15 10:27:00,
2013-03-15 06:32:00,27.8,22.1,30.17,SW,227,0.0,0.0,79,0.00,CLR,,0.00,WeatherDisplay:10.37,2013-03-15 10:32:00,
2013-03-15 06:37:00,27.7,21.7,30.17,SW,226,0.0,0.0,78,0.00,CLR,,0.00,WeatherDisplay:10.37,2013-03-15 10:37:00,
2013-03-15 06:42:00,27.6,22.2,30.16,SW,225,0.0,0.0,80,0.00,CLR,,0.00,WeatherDisplay:10.37,2013-03-15 10:42:00,
2013-03-15 06:47:00,27.4,22.6,30.16,SW,225,0.0,0.0,82,0.00,CLR,,0.00,WeatherDisplay:10.37,2013-03-15 10:47:00,
2013-03-15 06:52:00,27.3,22.8,30.16,SW,224,0.0,0.0,83,0.00,CLR,,0.00,WeatherDisplay:10.37,2013-03-15 10:52:00,
2013-03-15 06:57:00,27.1,22.9,30.16,SW,225,0.0,0.0,84,0.00,CLR,,0.00,WeatherDisplay:10.37,2013-03-15 10:57:00,
2013-03-15 07:02:00,26.9,22.7,30.16,SW,225,0.0,0.0,84,0.00,CLR,,0.00,WeatherDisplay:10.37,2013-03-15 11:02:00,
2013-03-15 07:07:00,26.4,22.2,30.16,SW,224,0.0,0.0,84,0.00,CLR,,0.00,WeatherDisplay:10.37,2013-03-15 11:07:00,
2013-03-15 07:12:00,26.3,22.7,30.16,SW,225,0.0,0.0,86,0.00,CLR,,0.00,WeatherDisplay:10.37,2013-03-15 11:12:00,
2013-03-15 07:18:00,26.1,22.8,30.16,SW,225,0.0,0.0,87,0.00,CLR,,0.00,WeatherDisplay:10.37,2013-03-15 11:18:00,
2013-03-15 07:23:00,25.9,22.6,30.16,SW,225,0.0,0.0,87,0.00,CLR,,0.00,WeatherDisplay:10.37,2013-03-15 11:23:00,
2013-03-15 07:28:00,25.8,22.7,30.16,SW,225,0.0,0.0,88,0.00,CLR,,0.00,WeatherDisplay:10.37,2013-03-15 11:28:00,
2013-03-15 07:33:00,25.7,22.6,30.16,SW,225,0.0,0.0,88,0.00,CLR,,0.00,WeatherDisplay:10.37,2013-03-15 11:33:00,
2013-03-15 07:38:00,25.6,22.8,30.17,SW,225,0.0,0.0,89,0.00,CLR,,0.00,WeatherDisplay:10.37,2013-03-15 11:38:00,
2013-03-15 07:43:00,25.6,22.8,30.17,SW,224,0.0,0.0,89,0.00,CLR,,0.00,WeatherDisplay:10.37,2013-03-15 11:43:00,
2013-03-15 07:48:00,25.8,23.3,30.17,SW,225,0.0,0.0,90,0.00,CLR,,0.00,WeatherDisplay:10.37,2013-03-15 11:48:00,
2013-03-15 07:53:00,26.4,24.1,30.17,SW,225,0.0,0.0,91,0.00,CLR,,0.00,WeatherDisplay:10.37,2013-03-15 11:53:00,
2013-03-15 07:58:00,27.0,24.7,30.17,SW,225,0.0,0.0,91,0.00,CLR,,0.00,WeatherDisplay:10.37,2013-03-15 11:58:00,
2013-03-15 08:03:00,28.0,25.7,30.17,SW,225,0.0,0.0,91,0.00,CLR,,0.00,WeatherDisplay:10.37,2013-03-15 12:03:00,
2013-03-15 08:08:00,29.7,27.7,30.17,SW,224,0.0,0.0,92,0.00,CLR,,0.00,WeatherDisplay:10.37,2013-03-15 12:08:00,
2013-03-15 08:13:00,31.4,28.5,30.17,SW,224,0.0,0.0,89,0.00,CLR,,0.00,WeatherDisplay:10.37,2013-03-15 12:13:00,
2013-03-15 08:18:00,33.0,29.0,30.17,SW,225,0.0,0.0,85,0.00,CLR,,0.00,WeatherDisplay:10.37,2013-03-15 12:18:00,
2013-03-15 08:23:00,34.1,28.3,30.17,SSW,203,0.0,0.0,79,0.00,CLR,,0.00,WeatherDisplay:10.37,2013-03-15 12:23:00,
2013-03-15 08:28:00,35.0,28.5,30.17,SSW,203,0.0,0.0,77,0.00,CLR,,0.00,WeatherDisplay:10.37,2013-03-15 12:28:00,
2013-03-15 08:33:00,35.9,28.4,30.17,SSW,203,0.0,0.0,74,0.00,CLR,,0.00,WeatherDisplay:10.37,2013-03-15 12:33:00,
2013-03-15 08:38:00,36.3,28.5,30.17,SSW,203,0.0,0.0,73,0.00,CLR,,0.00,WeatherDisplay:10.37,2013-03-15 12:38:00,
2013-03-15 08:43:00,37.0,28.8,30.17,South,173,0.0,0.0,72,0.00,CLR,,0.00,WeatherDisplay:10.37,2013-03-15 12:43:00,
2013-03-15 08:48:00,37.8,28.5,30.18,South,170,0.0,0.0,69,0.00,CLR,,0.00,WeatherDisplay:10.37,2013-03-15 12:48:00,
2013-03-15 08:53:00,38.8,29.8,30.18,South,170,0.0,0.0,70,0.00,CLR,,0.00,WeatherDisplay:10.37,2013-03-15 12:53:00,
2013-03-15 08:58:00,40.0,29.2,30.18,South,173,0.0,0.0,65,0.00,CLR,,0.00,WeatherDisplay:10.37,2013-03-15 12:58:00,
2013-03-15 09:03:00,40.6,25.7,30.18,WSW,245,2.3,2.3,55,0.00,CLR,,0.00,WeatherDisplay:10.37,2013-03-15 13:03:00,
2013-03-15 09:08:00,40.9,25.5,30.17,SW,217,1.1,0.0,54,0.00,CLR,,0.00,WeatherDisplay:10.37,2013-03-15 13:08:00,
2013-03-15 09:13:00,41.3,25.0,30.18,WSW,240,2.3,2.3,52,0.00,CLR,,0.00,WeatherDisplay:10.37,2013-03-15 13:13:00,
2013-03-15 09:18:00,41.7,24.9,30.18,WSW,255,3.5,3.5,51,0.00,CLR,,0.00,WeatherDisplay:10.37,2013-03-15 13:18:00,
2013-03-15 09:23:00,42.4,25.5,30.18,SE,145,2.3,2.3,51,0.00,CLR,,0.00,WeatherDisplay:10.37,2013-03-15 13:23:00,
2013-03-15 09:28:00,43.0,24.6,30.17,SW,221,3.5,3.5,48,0.00,CLR,,0.00,WeatherDisplay:10.37,2013-03-15 13:28:00,
2013-03-15 09:33:00,43.3,24.9,30.17,SSE,166,2.3,2.3,48,0.00,CLR,,0.00,WeatherDisplay:10.37,2013-03-15 13:33:00,
2013-03-15 09:38:00,44.1,25.6,30.17,SW,229,0.0,0.0,48,0.00,CLR,,0.00,WeatherDisplay:10.37,2013-03-15 13:38:00,
2013-03-15 09:43:00,44.7,25.2,30.17,WNW,295,2.3,2.3,46,0.00,CLR,,0.00,WeatherDisplay:10.37,2013-03-15 13:43:00,
2013-03-15 09:48:00,45.1,25.0,30.18,West,259,3.5,3.5,45,0.00,CLR,,0.00,WeatherDisplay:10.37,2013-03-15 13:48:00,
2013-03-15 09:53:00,45.6,24.9,30.18,WNW,294,3.5,3.5,44,0.00,CLR,,0.00,WeatherDisplay:10.37,2013-03-15 13:53:00,
2013-03-15 09:58:00,46.0,24.7,30.17,WSW,239,2.3,2.3,43,0.00,CLR,,0.00,WeatherDisplay:10.37,2013-03-15 13:58:00,
2013-03-15 10:03:00,46.3,24.4,30.17,WNW,291,4.6,4.6,42,0.00,CLR,,0.00,WeatherDisplay:10.37,2013-03-15 14:03:00,
2013-03-15 10:08:00,46.7,25.4,30.17,WNW,298,1.1,1.1,43,0.00,CLR,,0.00,WeatherDisplay:10.37,2013-03-15 14:08:00,
2013-03-15 10:13:00,47.1,22.8,30.17,WNW,291,5.8,5.8,38,0.00,CLR,,0.00,WeatherDisplay:10.37,2013-03-15 14:13:00,
2013-03-15 10:18:00,47.6,23.8,30.17,North,1,1.1,1.1,39,0.00,CLR,,0.00,WeatherDisplay:10.37,2013-03-15 14:18:00,
2013-03-15 10:23:00,48.3,23.2,30.17,WNW,295,3.5,3.5,37,0.00,CLR,,0.00,WeatherDisplay:10.37,2013-03-15 14:23:00,
2013-03-15 10:28:00,48.8,22.3,30.16,SSW,207,4.6,4.6,35,0.00,CLR,,0.00,WeatherDisplay:10.37,2013-03-15 14:28:00,
2013-03-15 10:33:00,49.0,22.5,30.16,WSW,256,3.5,3.5,35,0.00,CLR,,0.00,WeatherDisplay:10.37,2013-03-15 14:33:00,
2013-03-15 10:38:00,49.5,22.3,30.16,NW,308,4.6,4.6,34,0.00,CLR,,0.00,WeatherDisplay:10.37,2013-03-15 14:38:00,
2013-03-15 10:43:00,49.7,22.4,30.15,SSW,201,3.5,3.5,34,0.00,CLR,,0.00,WeatherDisplay:10.37,2013-03-15 14:43:00,
2013-03-15 10:48:00,49.9,21.2,30.15,West,278,3.5,3.5,32,0.00,CLR,,0.00,WeatherDisplay:10.37,2013-03-15 14:48:00,
2013-03-15 10:53:00,50.2,22.2,30.15,NW,319,4.6,4.6,33,0.00,CLR,,0.00,WeatherDisplay:10.37,2013-03-15 14:53:00,
2013-03-15 10:58:00,51.0,23.6,30.15,West,263,3.5,3.5,34,0.00,CLR,,0.00,WeatherDisplay:10.37,2013-03-15 14:58:00,
2013-03-15 11:03:00,51.3,21.6,30.15,SW,232,3.5,3.5,31,0.00,CLR,,0.00,WeatherDisplay:10.37,2013-03-15 15:03:00,
2013-03-15 11:08:00,50.8,21.2,30.15,WNW,297,9.2,9.2,31,0.00,CLR,,0.00,WeatherDisplay:10.37,2013-03-15 15:08:00,
2013-03-15 11:14:00,51.1,23.0,30.14,WNW,284,3.5,3.5,33,0.00,CLR,,0.00,WeatherDisplay:10.37,2013-03-15 15:14:00,
2013-03-15 11:19:00,51.9,23.7,30.14,West,259,1.1,1.1,33,0.00,CLR,,0.00,WeatherDisplay:10.37,2013-03-15 15:19:00,
2013-03-15 11:24:00,52.3,23.3,30.14,WSW,242,3.5,3.5,32,0.00,CLR,,0.00,WeatherDisplay:10.37,2013-03-15 15:24:00,
2013-03-15 11:29:00,52.1,22.3,30.14,NNW,337,5.8,5.8,31,0.00,CLR,,0.00,WeatherDisplay:10.37,2013-03-15 15:29:00,
2013-03-15 11:34:00,52.5,23.5,30.13,WNW,291,3.5,3.5,32,0.00,CLR,,0.00,WeatherDisplay:10.37,2013-03-15 15:34:00,
2013-03-15 11:39:00,53.0,23.9,30.13,WNW,291,6.9,6.9,32,0.00,CLR,,0.00,WeatherDisplay:10.37,2013-03-15 15:39:00,
2013-03-15 11:44:00,53.2,24.1,30.13,SW,214,3.5,3.5,32,0.00,CLR,,0.00,WeatherDisplay:10.37,2013-03-15 15:44:00,
2013-03-15 11:49:00,53.3,24.9,30.12,SW,221,2.3,2.3,33,0.00,CLR,,0.00,WeatherDisplay:10.37,2013-03-15 15:49:00,
2013-03-15 11:54:00,53.9,25.4,30.12,West,264,3.5,3.5,33,0.00,CLR,,0.00,WeatherDisplay:10.37,2013-03-15 15:54:00,
2013-03-15 11:59:00,54.1,24.9,30.11,SSE,165,3.5,3.5,32,0.00,CLR,,0.00,WeatherDisplay:10.37,2013-03-15 15:59:00,
2013-03-15 12:04:00,54.6,26.0,30.11,SW,217,3.5,3.5,33,0.00,CLR,,0.00,WeatherDisplay:10.37,2013-03-15 16:04:00,
2013-03-15 12:09:00,54.9,26.3,30.10,SW,233,4.6,4.6,33,0.00,CLR,,0.00,WeatherDisplay:10.37,2013-03-15 16:09:00,
2013-03-15 12:14:00,54.8,26.2,30.10,SSW,209,6.0,6.0,33,0.00,CLR,,0.00,WeatherDisplay:10.37,2013-03-15 16:14:00,
2013-03-15 12:19:00,55.0,26.4,30.10,West,278,3.5,3.5,33,0.00,CLR,,0.00,WeatherDisplay:10.37,2013-03-15 16:19:00,
2013-03-15 12:24:00,55.4,27.5,30.10,WSW,256,3.0,3.0,34,0.00,CLR,,0.00,WeatherDisplay:10.37,2013-03-15 16:24:00,
2013-03-15 12:29:00,55.8,27.1,30.09,West,278,4.6,4.6,33,0.00,CLR,,0.00,WeatherDisplay:10.37,2013-03-15 16:29:00,
2013-03-15 12:34:00,55.9,27.9,30.09,WNW,295,3.5,3.5,34,0.00,CLR,,0.00,WeatherDisplay:10.37,2013-03-15 16:34:00,
2013-03-15 12:39:00,55.8,27.1,30.09,NE,37,6.9,6.9,33,0.00,CLR,,0.00,WeatherDisplay:10.37,2013-03-15 16:39:00,
2013-03-15 12:44:00,56.1,28.1,30.08,SW,222,4.6,4.6,34,0.00,CLR,,0.00,WeatherDisplay:10.37,2013-03-15 16:44:00,
2013-03-15 12:49:00,56.2,28.2,30.08,NW,318,3.5,3.5,34,0.00,CLR,,0.00,WeatherDisplay:10.37,2013-03-15 16:49:00,
2013-03-15 12:54:00,56.8,28.0,30.08,WSW,248,3.5,3.5,33,0.00,CLR,,0.00,WeatherDisplay:10.37,2013-03-15 16:54:00,
2013-03-15 12:59:00,57.3,29.1,30.08,West,269,3.5,3.5,34,0.00,CLR,,0.00,WeatherDisplay:10.37,2013-03-15 16:59:00,
2013-03-15 13:04:00,57.7,29.5,30.08,West,276,11.5,11.5,34,0.00,CLR,,0.00,WeatherDisplay:10.37,2013-03-15 17:04:00,
2013-03-15 13:09:00,58.4,30.1,30.07,NNW,339,3.5,3.5,34,0.00,CLR,,0.00,WeatherDisplay:10.37,2013-03-15 17:09:00,
2013-03-15 13:14:00,59.0,29.2,30.07,WNW,284,5.8,5.8,32,0.00,CLR,,0.00,WeatherDisplay:10.37,2013-03-15 17:14:00,
2013-03-15 13:19:00,59.3,30.2,30.07,North,1,2.3,2.3,33,0.00,CLR,,0.00,WeatherDisplay:10.37,2013-03-15 17:19:00,
2013-03-15 13:24:00,59.4,30.3,30.07,SSW,193,3.5,3.5,33,0.00,CLR,,0.00,WeatherDisplay:10.37,2013-03-15 17:24:00,
2013-03-15 13:29:00,59.6,30.4,30.06,South,177,5.8,5.8,33,0.00,CLR,,0.00,WeatherDisplay:10.37,2013-03-15 17:29:00,
2013-03-15 13:34:00,59.6,29.7,30.06,SW,218,5.0,5.0,32,0.00,CLR,,0.00,WeatherDisplay:10.37,2013-03-15 17:34:00,
2013-03-15 13:39:00,59.8,29.9,30.06,WSW,239,3.5,3.5,32,0.00,CLR,,0.00,WeatherDisplay:10.37,2013-03-15 17:39:00,
2013-03-15 13:44:00,59.5,30.3,30.05,SW,232,5.8,5.8,33,0.00,CLR,,0.00,WeatherDisplay:10.37,2013-03-15 17:44:00,
2013-03-15 13:49:00,59.6,29.7,30.05,WNW,293,6.9,6.9,32,0.00,CLR,,0.00,WeatherDisplay:10.37,2013-03-15 17:49:00,
2013-03-15 13:54:00,60.0,31.5,30.05,NW,305,4.6,4.6,34,0.00,CLR,,0.00,WeatherDisplay:10.37,2013-03-15 17:54:00,
2013-03-15 13:59:00,60.3,31.0,30.04,SW,232,3.5,3.5,33,0.00,CLR,,0.00,WeatherDisplay:10.37,2013-03-15 17:59:00,
2013-03-15 14:04:00,61.0,31.7,30.04,NW,318,5.8,5.8,33,0.00,CLR,,0.00,WeatherDisplay:10.37,2013-03-15 18:04:00,
2013-03-15 14:09:00,61.0,30.9,30.03,NW,315,5.8,5.8,32,0.00,CLR,,0.00,WeatherDisplay:10.37,2013-03-15 18:09:00,
2013-03-15 14:14:00,61.1,31.0,30.03,West,262,8.1,8.1,32,0.00,CLR,,0.00,WeatherDisplay:10.37,2013-03-15 18:14:00,
2013-03-15 14:19:00,61.1,31.8,30.02,SE,142,3.5,3.5,33,0.00,CLR,,0.00,WeatherDisplay:10.37,2013-03-15 18:19:00,
2013-03-15 14:24:00,61.4,33.5,30.02,WNW,300,3.5,3.5,35,0.00,CLR,,0.00,WeatherDisplay:10.37,2013-03-15 18:24:00,
2013-03-15 14:29:00,61.7,33.0,30.02,WSW,257,4.6,4.6,34,0.00,CLR,,0.00,WeatherDisplay:10.37,2013-03-15 18:29:00,
2013-03-15 14:34:00,62.1,32.6,30.01,WSW,240,4.6,4.6,33,0.00,CLR,,0.00,WeatherDisplay:10.37,2013-03-15 18:34:00,
2013-03-15 14:39:00,62.1,31.9,30.01,NW,318,3.5,3.5,32,0.00,CLR,,0.00,WeatherDisplay:10.37,2013-03-15 18:39:00,
2013-03-15 14:44:00,62.2,32.0,30.00,WSW,245,5.8,5.8,32,0.00,CLR,,0.00,WeatherDisplay:10.37,2013-03-15 18:44:00,
2013-03-15 14:49:00,62.6,32.3,30.00,SW,222,3.5,3.5,32,0.00,CLR,,0.00,WeatherDisplay:10.37,2013-03-15 18:49:00,
2013-03-15 14:54:00,62.6,31.5,29.99,SW,235,8.1,8.1,31,0.00,CLR,,0.00,WeatherDisplay:10.37,2013-03-15 18:54:00,
2013-03-15 14:59:00,62.5,32.2,29.99,WSW,238,4.6,4.6,32,0.00,CLR,,0.00,WeatherDisplay:10.37,2013-03-15 18:59:00,
2013-03-15 15:04:00,62.5,32.2,29.99,SW,218,4.6,4.6,32,0.00,CLR,,0.00,WeatherDisplay:10.37,2013-03-15 19:04:00,
2013-03-15 15:10:00,63.0,33.4,29.98,WSW,253,1.1,1.1,33,0.00,CLR,,0.00,WeatherDisplay:10.37,2013-03-15 19:10:00,
2013-03-15 15:15:00,63.4,33.0,29.98,SW,231,3.5,3.5,32,0.00,CLR,,0.00,WeatherDisplay:10.37,2013-03-15 19:15:00,
2013-03-15 15:20:00,63.4,32.2,29.97,WNW,288,5.8,5.8,31,0.00,CLR,,0.00,WeatherDisplay:10.37,2013-03-15 19:20:00,
2013-03-15 15:25:00,63.9,33.4,29.97,SW,221,8.1,8.1,32,0.00,CLR,,0.00,WeatherDisplay:10.37,2013-03-15 19:25:00,
2013-03-15 15:30:00,64.1,32.8,29.97,West,274,5.8,5.8,31,0.00,CLR,,0.00,WeatherDisplay:10.37,2013-03-15 19:30:00,
2013-03-15 15:35:00,64.3,33.8,29.96,SSE,153,4.6,4.6,32,0.00,CLR,,0.00,WeatherDisplay:10.37,2013-03-15 19:35:00,
2013-03-15 15:40:00,64.4,32.3,29.96,WNW,301,5.8,5.8,30,0.00,CLR,,0.00,WeatherDisplay:10.37,2013-03-15 19:40:00,
2013-03-15 15:45:00,64.1,32.8,29.96,West,262,5.8,5.8,31,0.00,CLR,,0.00,WeatherDisplay:10.37,2013-03-15 19:45:00,
2013-03-15 15:50:00,63.8,32.6,29.95,WSW,246,4.6,4.6,31,0.00,CLR,,0.00,WeatherDisplay:10.37,2013-03-15 19:50:00,
2013-03-15 15:55:00,63.3,32.1,29.95,SSE,165,3.5,3.5,31,0.00,CLR,,0.00,WeatherDisplay:10.37,2013-03-15 19:55:00,
2013-03-15 16:00:00,63.9,32.6,29.95,SSW,198,12.7,12.7,31,0.00,CLR,,0.00,WeatherDisplay:10.37,2013-03-15 20:00:00,
2013-03-15 16:05:00,64.1,33.6,29.95,SW,222,10.4,10.4,32,0.00,CLR,,0.00,WeatherDisplay:10.37,2013-03-15 20:05:00,
2013-03-15 16:10:00,63.7,33.3,29.95,North,352,8.1,8.1,32,0.00,CLR,,0.00,WeatherDisplay:10.37,2013-03-15 20:10:00,
2013-03-15 16:15:00,63.6,33.2,29.95,WSW,245,3.5,3.5,32,0.00,CLR,,0.00,WeatherDisplay:10.37,2013-03-15 20:15:00,
2013-03-15 16:20:00,63.7,33.3,29.95,SW,219,3.5,3.5,32,0.00,CLR,,0.00,WeatherDisplay:10.37,2013-03-15 20:20:00,
2013-03-15 16:25:00,63.3,32.9,29.95,SSW,203,3.5,3.5,32,0.00,CLR,,0.00,WeatherDisplay:10.37,2013-03-15 20:25:00,
2013-03-15 16:30:00,63.0,33.4,29.94,SW,214,3.5,3.5,33,0.00,CLR,,0.00,WeatherDisplay:10.37,2013-03-15 20:30:00,
2013-03-15 16:35:00,63.0,33.4,29.94,SW,226,5.0,5.0,33,0.00,CLR,,0.00,WeatherDisplay:10.37,2013-03-15 20:35:00,
2013-03-15 16:40:00,62.7,33.2,29.94,WSW,242,10.0,10.0,33,0.00,CLR,,0.00,WeatherDisplay:10.37,2013-03-15 20:40:00,
2013-03-15 16:45:00,62.6,33.8,29.94,West,276,5.0,5.0,34,0.00,CLR,,0.00,WeatherDisplay:10.37,2013-03-15 20:45:00,
2013-03-15 16:50:00,62.5,33.7,29.94,South,181,3.5,3.5,34,0.00,CLR,,0.00,WeatherDisplay:10.37,2013-03-15 20:50:00,
2013-03-15 16:55:00,62.3,33.6,29.93,SW,222,5.8,5.8,34,0.00,CLR,,0.00,WeatherDisplay:10.37,2013-03-15 20:55:00,
2013-03-15 17:00:00,62.1,34.1,29.93,SW,225,9.0,9.0,35,0.00,CLR,,0.00,WeatherDisplay:10.37,2013-03-15 21:00:00,
2013-03-15 17:05:00,61.9,33.9,29.93,SW,234,7.0,7.0,35,0.00,CLR,,0.00,WeatherDisplay:10.37,2013-03-15 21:05:00,
2013-03-15 17:10:00,61.8,33.8,29.93,WSW,243,2.3,2.3,35,0.00,CLR,,0.00,WeatherDisplay:10.37,2013-03-15 21:10:00,
2013-03-15 17:15:00,61.8,33.8,29.93,NNE,18,9.2,9.2,35,0.00,CLR,,0.00,WeatherDisplay:10.37,2013-03-15 21:15:00,
2013-03-15 17:20:00,61.7,33.0,29.93,South,186,10.4,10.4,34,0.00,CLR,,0.00,WeatherDisplay:10.37,2013-03-15 21:20:00,
2013-03-15 17:25:00,61.6,33.7,29.93,SW,236,5.0,5.0,35,0.00,CLR,,0.00,WeatherDisplay:10.37,2013-03-15 21:25:00,
2013-03-15 17:30:00,61.6,32.9,29.92,WSW,256,6.9,6.9,34,0.00,CLR,,0.00,WeatherDisplay:10.37,2013-03-15 21:30:00,
2013-03-15 17:35:00,61.5,32.8,29.92,NW,311,5.8,5.8,34,0.00,CLR,,0.00,WeatherDisplay:10.37,2013-03-15 21:35:00,
2013-03-15 17:40:00,61.4,32.8,29.92,SW,228,4.6,4.6,34,0.00,CLR,,0.00,WeatherDisplay:10.37,2013-03-15 21:40:00,
2013-03-15 17:45:00,61.2,32.6,29.92,SSW,212,3.5,3.5,34,0.00,CLR,,0.00,WeatherDisplay:10.37,2013-03-15 21:45:00,
2013-03-15 17:50:00,60.9,32.3,29.92,SSW,210,6.9,6.9,34,0.00,CLR,,0.00,WeatherDisplay:10.37,2013-03-15 21:50:00,
2013-03-15 17:55:00,60.7,32.1,29.92,SW,236,5.0,5.0,34,0.00,CLR,,0.00,WeatherDisplay:10.37,2013-03-15 21:55:00,
2013-03-15 18:00:00,60.5,32.0,29.92,WSW,245,3.5,3.5,34,0.00,CLR,,0.00,WeatherDisplay:10.37,2013-03-15 22:00:00,
2013-03-15 18:05:00,60.4,31.9,29.92,West,269,6.9,6.9,34,0.00,CLR,,0.00,WeatherDisplay:10.37,2013-03-15 22:05:00,
2013-03-15 18:10:00,60.3,32.5,29.92,South,186,4.0,4.0,35,0.00,CLR,,0.00,WeatherDisplay:10.37,2013-03-15 22:10:00,
2013-03-15 18:15:00,60.2,32.4,29.92,West,262,4.6,4.6,35,0.00,CLR,,0.00,WeatherDisplay:10.37,2013-03-15 22:15:00,
2013-03-15 18:20:00,60.1,32.3,29.92,NW,320,2.3,2.3,35,0.00,CLR,,0.00,WeatherDisplay:10.37,2013-03-15 22:20:00,
2013-03-15 18:25:00,60.1,33.0,29.92,SW,217,3.5,3.5,36,0.00,CLR,,0.00,WeatherDisplay:10.37,2013-03-15 22:25:00,
2013-03-15 18:30:00,60.1,33.0,29.92,WSW,245,0.0,0.0,36,0.00,CLR,,0.00,WeatherDisplay:10.37,2013-03-15 22:30:00,
2013-03-15 18:35:00,60.1,33.0,29.92,WSW,255,4.6,4.6,36,0.00,CLR,,0.00,WeatherDisplay:10.37,2013-03-15 22:35:00,
2013-03-15 18:40:00,60.1,33.0,29.92,WSW,245,3.5,3.5,36,0.00,CLR,,0.00,WeatherDisplay:10.37,2013-03-15 22:40:00,
2013-03-15 18:45:00,60.2,33.1,29.92,West,276,2.3,2.3,36,0.00,CLR,,0.00,WeatherDisplay:10.37,2013-03-15 22:45:00,
2013-03-15 18:50:00,60.1,33.7,29.92,WSW,253,3.5,3.5,37,0.00,CLR,,0.00,WeatherDisplay:10.37,2013-03-15 22:50:00,
2013-03-15 18:55:00,60.0,33.6,29.91,WSW,241,2.3,2.3,37,0.00,CLR,,0.00,WeatherDisplay:10.37,2013-03-15 22:55:00,
2013-03-15 19:00:00,59.8,33.5,29.91,WNW,294,1.1,0.0,37,0.00,CLR,,0.00,WeatherDisplay:10.37,2013-03-15 23:00:00,
2013-03-15 19:05:00,59.5,33.9,29.91,WSW,245,0.0,0.0,38,0.00,CLR,,0.00,WeatherDisplay:10.37,2013-03-15 23:05:00,
2013-03-15 19:10:00,59.1,34.1,29.91,WNW,300,0.0,0.0,39,0.00,CLR,,0.00,WeatherDisplay:10.37,2013-03-15 23:10:00,
2013-03-15 19:15:00,58.9,34.0,29.91,SW,226,0.0,0.0,39,0.00,CLR,,0.00,WeatherDisplay:10.37,2013-03-15 23:15:00,
2013-03-15 19:20:00,58.6,33.7,29.91,WSW,240,2.3,2.3,39,0.00,CLR,,0.00,WeatherDisplay:10.37,2013-03-15 23:20:00,
2013-03-15 19:25:00,58.2,34.0,29.91,WSW,242,0.0,0.0,40,0.00,CLR,,0.00,WeatherDisplay:10.37,2013-03-15 23:25:00,
2013-03-15 19:30:00,57.9,34.3,29.92,West,273,0.0,0.0,41,0.00,CLR,,0.00,WeatherDisplay:10.37,2013-03-15 23:30:00,
2013-03-15 19:35:00,57.6,34.7,29.92,West,271,0.0,0.7,42,0.00,CLR,,0.00,WeatherDisplay:10.37,2013-03-15 23:35:00,
2013-03-15 19:40:00,57.3,34.4,29.92,WSW,256,0.0,0.0,42,0.00,CLR,,0.00,WeatherDisplay:10.37,2013-03-15 23:40:00,
2013-03-15 19:45:00,57.1,34.8,29.92,SW,224,0.0,0.1,43,0.00,CLR,,0.00,WeatherDisplay:10.37,2013-03-15 23:45:00,
2013-03-15 19:50:00,56.8,34.5,29.92,SW,228,0.0,0.0,43,0.00,CLR,,0.00,WeatherDisplay:10.37,2013-03-15 23:50:00,
2013-03-15 19:55:00,56.4,34.7,29.91,NNW,330,1.1,0.0,44,0.00,CLR,,0.00,WeatherDisplay:10.37,2013-03-15 23:55:00,
2013-03-15 20:00:00,56.0,34.9,29.92,WSW,250,0.0,0.0,45,0.00,CLR,,0.00,WeatherDisplay:10.37,2013-03-16 00:00:00,
2013-03-15 20:05:00,55.5,34.5,29.92,WSW,251,0.0,0.0,45,0.00,CLR,,0.00,WeatherDisplay:10.37,2013-03-16 00:05:00,
2013-03-15 20:10:00,54.9,34.5,29.91,WSW,251,0.0,0.0,46,0.00,CLR,,0.00,WeatherDisplay:10.37,2013-03-16 00:10:00,
2013-03-15 20:15:00,54.2,34.4,29.91,WSW,250,0.0,0.0,47,0.00,CLR,,0.00,WeatherDisplay:10.37,2013-03-16 00:15:00,
2013-03-15 20:20:00,53.6,33.8,29.91,WSW,250,0.0,0.0,47,0.00,CLR,,0.00,WeatherDisplay:10.37,2013-03-16 00:20:00,
2013-03-15 20:25:00,53.2,34.5,29.91,WSW,250,0.0,0.0,49,0.00,CLR,,0.00,WeatherDisplay:10.37,2013-03-16 00:25:00,
2013-03-15 20:30:00,52.7,34.1,29.92,WSW,250,0.0,0.0,49,0.00,CLR,,0.00,WeatherDisplay:10.37,2013-03-16 00:30:00,
2013-03-15 20:35:00,52.3,34.7,29.92,WSW,250,0.0,0.0,51,0.00,CLR,,0.00,WeatherDisplay:10.37,2013-03-16 00:35:00,
2013-03-15 20:40:00,52.2,34.6,29.91,WSW,249,0.0,0.1,51,0.00,CLR,,0.00,WeatherDisplay:10.37,2013-03-16 00:40:00,
2013-03-15 20:45:00,52.5,34.9,29.92,WSW,249,1.1,0.0,51,0.00,CLR,,0.00,WeatherDisplay:10.37,2013-03-16 00:45:00,
2013-03-15 20:50:00,52.8,34.7,29.91,WSW,248,0.0,0.0,50,0.00,CLR,,0.00,WeatherDisplay:10.37,2013-03-16 00:50:00,
2013-03-15 20:55:00,52.9,34.8,29.91,WSW,248,0.0,0.0,50,0.00,CLR,,0.00,WeatherDisplay:10.37,2013-03-16 00:55:00,
2013-03-15 21:01:00,52.9,34.8,29.91,WSW,239,0.0,0.0,50,0.00,CLR,,0.00,WeatherDisplay:10.37,2013-03-16 01:01:00,
2013-03-15 21:05:00,53.2,34.5,29.91,WNW,297,0.0,0.0,49,0.00,CLR,,0.00,WeatherDisplay:10.37,2013-03-16 01:05:00,
2013-03-15 21:11:00,53.1,34.4,29.91,West,277,0.0,0.0,49,0.00,CLR,,0.00,WeatherDisplay:10.37,2013-03-16 01:11:00,
2013-03-15 21:16:00,53.2,34.5,29.91,WSW,239,0.0,0.0,49,0.00,CLR,,0.00,WeatherDisplay:10.37,2013-03-16 01:16:00,
2013-03-15 21:21:00,53.2,34.5,29.91,NW,309,0.0,0.0,49,0.00,CLR,,0.00,WeatherDisplay:10.37,2013-03-16 01:21:00,
2013-03-15 21:26:00,53.1,34.4,29.91,West,266,0.0,0.0,49,0.00,CLR,,0.00,WeatherDisplay:10.37,2013-03-16 01:26:00,
2013-03-15 21:31:00,53.1,34.4,29.91,WSW,249,3.0,3.0,49,0.00,CLR,,0.00,WeatherDisplay:10.37,2013-03-16 01:31:00,
2013-03-15 21:36:00,53.2,34.5,29.91,WSW,253,2.3,2.3,49,0.00,CLR,,0.00,WeatherDisplay:10.37,2013-03-16 01:36:00,
2013-03-15 21:42:00,53.6,34.4,29.91,SW,236,3.5,3.5,48,0.00,CLR,,0.00,WeatherDisplay:10.37,2013-03-16 01:42:00,
2013-03-15 21:47:00,53.7,34.5,29.91,SW,222,1.1,0.0,48,0.00,CLR,,0.00,WeatherDisplay:10.37,2013-03-16 01:47:00,
2013-03-15 21:52:00,53.7,34.5,29.91,South,190,3.5,3.5,48,0.00,CLR,,0.00,WeatherDisplay:10.37,2013-03-16 01:52:00,
2013-03-15 21:57:00,53.8,34.6,29.91,North,355,3.5,3.5,48,0.00,CLR,,0.00,WeatherDisplay:10.37,2013-03-16 01:57:00,
2013-03-15 22:02:00,54.0,34.7,29.91,SW,215,3.5,3.5,48,0.00,CLR,,0.00,WeatherDisplay:10.37,2013-03-16 02:02:00,
2013-03-15 22:07:00,54.0,34.7,29.91,SW,219,1.1,0.0,48,0.00,CLR,,0.00,WeatherDisplay:10.37,2013-03-16 02:07:00,
2013-03-15 22:12:00,53.9,35.2,29.91,SSW,200,2.3,2.3,49,0.00,CLR,,0.00,WeatherDisplay:10.37,2013-03-16 02:12:00,
2013-03-15 22:17:00,54.0,34.7,29.91,SSE,164,2.3,2.3,48,0.00,CLR,,0.00,WeatherDisplay:10.37,2013-03-16 02:17:00,
2013-03-15 22:22:00,54.2,34.9,29.91,SW,233,1.1,1.1,48,0.00,CLR,,0.00,WeatherDisplay:10.37,2013-03-16 02:22:00,
2013-03-15 22:27:00,54.1,34.8,29.91,WSW,253,0.0,0.0,48,0.00,CLR,,0.00,WeatherDisplay:10.37,2013-03-16 02:27:00,
2013-03-15 22:32:00,53.9,34.6,29.91,SSW,198,0.0,0.0,48,0.00,CLR,,0.00,WeatherDisplay:10.37,2013-03-16 02:32:00,
2013-03-15 22:38:00,53.7,35.0,29.91,SSW,209,0.0,0.0,49,0.00,CLR,,0.00,WeatherDisplay:10.37,2013-03-16 02:38:00,
2013-03-15 22:43:00,53.8,35.1,29.91,SW,232,3.5,3.5,49,0.00,CLR,,0.00,WeatherDisplay:10.37,2013-03-16 02:43:00,
2013-03-15 22:48:00,53.9,35.2,29.91,SW,231,1.1,1.1,49,0.00,CLR,,0.00,WeatherDisplay:10.37,2013-03-16 02:48:00,
2013-03-15 22:53:00,53.8,35.1,29.91,SSW,211,3.5,3.5,49,0.00,CLR,,0.00,WeatherDisplay:10.37,2013-03-16 02:53:00,
2013-03-15 22:58:00,53.8,35.1,29.91,SW,225,2.3,2.3,49,0.00,CLR,,0.00,WeatherDisplay:10.37,2013-03-16 02:58:00,
2013-03-15 23:03:00,53.8,35.1,29.91,WSW,242,1.1,1.1,49,0.00,CLR,,0.00,WeatherDisplay:10.37,2013-03-16 03:03:00,
2013-03-15 23:08:00,53.7,35.0,29.90,SW,228,1.1,1.1,49,0.00,CLR,,0.00,WeatherDisplay:10.37,2013-03-16 03:08:00,
2013-03-15 23:13:00,53.4,35.2,29.91,West,260,3.5,3.5,50,0.00,CLR,,0.00,WeatherDisplay:10.37,2013-03-16 03:13:00,
2013-03-15 23:18:00,53.6,35.4,29.90,SSW,210,1.1,1.1,50,0.00,CLR,,0.00,WeatherDisplay:10.37,2013-03-16 03:18:00,
2013-03-15 23:23:00,53.6,35.4,29.90,SSW,209,3.5,3.5,50,0.00,CLR,,0.00,WeatherDisplay:10.37,2013-03-16 03:23:00,
2013-03-15 23:28:00,53.7,35.5,29.90,West,262,2.0,2.0,50,0.00,CLR,,0.00,WeatherDisplay:10.37,2013-03-16 03:28:00,
2013-03-15 23:33:00,53.5,35.3,29.90,SW,231,3.5,3.5,50,0.00,CLR,,0.00,WeatherDisplay:10.37,2013-03-16 03:33:00,
2013-03-15 23:38:00,53.5,35.3,29.90,WSW,242,1.0,1.0,50,0.00,CLR,,0.00,WeatherDisplay:10.37,2013-03-16 03:38:00,
2013-03-15 23:43:00,53.4,35.7,29.90,SSW,202,0.0,0.0,51,0.00,CLR,,0.00,WeatherDisplay:10.37,2013-03-16 03:43:00,
2013-03-15 23:48:00,53.2,35.5,29.90,WSW,247,0.0,0.0,51,0.00,CLR,,0.00,WeatherDisplay:10.37,2013-03-16 03:48:00,
2013-03-15 23:53:00,53.1,35.4,29.90,WSW,249,2.3,2.3,51,0.00,CLR,,0.00,WeatherDisplay:10.37,2013-03-16 03:53:00,
2013-03-15 23:58:00,52.9,35.2,29.90,South,170,1.1,1.1,51,0.00,CLR,,0.00,WeatherDisplay:10.37,2013-03-16 03:58:00,